GW3294 Weather Reports


time (UTC)temp
C
wind
direction
speed
KPH
gust
KPH
rain 1hr
cm
rain 24hr
cm
rain mn
cm
humidity
%
barometer
mb
20260906052732 27 157 0.0 1.6 0.00 0.00 0.00 85 1016.6
20260906052229 27 255 0.0 1.6 0.00 0.00 0.00 85 1016.6
20260906051725 27 195 0.0 0.0 0.00 0.00 0.00 85 1016.7
20260906051225 27 117 0.0 1.6 0.00 0.00 0.00 84 1016.8
20260906050720 27 230 0.0 1.6 0.00 0.00 0.00 85 1016.6
20260906050215 27 124 0.0 0.0 0.00 0.00 0.00 83 1016.5
20260906045714 27 125 0.0 1.6 0.00 0.00 0.00 83 1016.4
20260906045208 27 55 0.0 1.6 0.00 0.00 0.00 82 1016.3
20260906044705 27 269 0.0 1.6 0.00 0.00 0.00 85 1016.4
20260906044200 27 153 1.6 1.6 0.00 0.00 0.00 84 1016.3
20260906043656 27 242 0.0 0.0 0.00 0.00 0.00 83 1016.5
20260906043152 27 166 0.0 1.6 0.00 0.00 0.00 82 1016.4
20260906042651 27 135 0.0 0.0 0.00 0.00 0.00 82 1016.3
20260906042144 27 129 0.0 1.6 0.00 0.00 0.00 83 1016.3
20260906041641 27 89 0.0 1.6 0.00 0.00 0.00 82 1016.2
20260906041135 27 124 0.0 0.0 0.00 0.00 0.00 80 1016.3
20260906040625 27 124 0.0 1.6 0.00 0.00 0.00 82 1016.2
20260906040120 27 135 0.0 1.6 0.00 0.00 0.00 81 1016.1
20260906035615 27 124 0.0 1.6 0.00 0.00 0.00 81 1015.9
20260906035111 27 122 0.0 3.2 0.00 0.00 0.00 81 1016.0
20260906034606 27 164 0.0 1.6 0.00 0.00 0.00 82 1016.2
20260906034100 27 117 0.0 3.2 0.00 0.00 0.00 79 1016.0
20260906033556 27 103 0.0 0.0 0.00 0.00 0.00 80 1016.0
20260906033051 27 144 0.0 3.2 0.00 0.00 0.00 81 1016.0
20260906032547 27 224 0.0 3.2 0.00 0.00 0.00 80 1015.9
20260906032042 27 169 0.0 1.6 0.00 0.00 0.00 77 1015.9
20260906031538 27 142 0.0 0.0 0.00 0.00 0.00 78 1015.8
20260906031033 27 119 0.0 1.6 0.00 0.00 0.00 80 1015.7
20260906030532 27 117 0.0 1.6 0.00 0.00 0.00 81 1015.7
20260906030026 27 119 0.0 1.6 0.00 0.00 0.00 80 1015.7
20260906025526 27 129 0.0 1.6 0.00 0.00 0.00 80 1015.5
20260906025024 27 103 0.0 1.6 0.00 0.00 0.00 77 1015.6
20260906024519 27 124 0.0 1.6 0.00 0.00 0.00 77 1015.7
20260906024014 28 140 1.6 1.6 0.00 0.00 0.00 79 1015.8
20260906023510 28 142 0.0 0.0 0.00 0.00 0.00 76 1015.6
20260906023004 28 89 0.0 1.6 0.00 0.00 0.00 78 1015.1
20260906022500 28 147 0.0 1.6 0.00 0.00 0.00 78 1015.2
20260906021955 28 120 0.0 3.2 0.00 0.00 0.00 77 1015.1
20260906021449 28 124 0.0 1.6 0.00 0.00 0.00 78 1015.1
20260906020944 28 103 0.0 1.6 0.00 0.00 0.00 77 1014.9
20260906020438 28 157 0.0 1.6 0.00 0.00 0.00 76 1014.9
20260906015932 28 130 0.0 1.6 0.00 0.00 0.00 74 1014.8
20260906015427 28 104 0.0 1.6 0.00 0.00 0.00 76 1014.9
20260906014927 30 230 0.0 1.6 0.00 0.00 0.00 71 1014.8
20260906014426 29 124 0.0 0.0 0.00 0.00 0.00 73 1014.8
20260906013922 29 124 0.0 1.6 0.00 0.00 0.00 73 1015.0
20260906013418 30 129 0.0 0.0 0.00 0.00 0.00 72 1014.5
20260906012914 30 129 0.0 0.0 0.00 0.00 0.00 71 1014.5
20260906012408 30 142 0.0 0.0 0.00 0.00 0.00 71 1014.5
20260906011908 30 142 0.0 1.6 0.00 0.00 0.00 71 1014.5
20260906011403 30 130 0.0 0.0 0.00 0.00 0.00 70 1014.5
20260906010858 31 201 0.0 1.6 0.00 0.00 0.00 68 1014.3
20260906010354 31 117 0.0 0.0 0.00 0.00 0.00 68 1014.2
20260906005850 31 230 0.0 1.6 0.00 0.00 0.00 69 1014.3
20260906005349 31 117 0.0 1.6 0.00 0.00 0.00 66 1014.1
20260906004848 32 217 0.0 0.0 0.00 0.00 0.00 66 1014.1
20260906004347 32 242 0.0 1.6 0.00 0.00 0.00 63 1014.3
20260906003842 31 142 0.0 1.6 0.00 0.00 0.00 65 1014.0
20260906003338 32 116 0.0 1.6 0.00 0.00 0.00 65 1013.8
20260906002834 32 117 0.0 1.6 0.00 0.00 0.00 64 1013.9
20260906002333 33 255 0.0 0.0 0.00 0.00 0.00 60 1014.1
20260906001828 33 89 0.0 0.0 0.00 0.00 0.00 60 1014.3
20260906001324 34 242 0.0 1.6 0.00 0.00 0.00 57 1014.0
20260906000819 34 269 0.0 3.2 0.00 0.00 0.00 56 1014.1
20260906000313 34 322 0.0 1.6 0.00 0.00 0.00 57 1014.0
20260905235809 34 309 0.0 0.0 0.00 0.00 0.00 57 1014.0
20260905235308 35 117 0.0 0.0 0.00 0.00 0.00 56 1014.1
20260905234804 35 245 0.0 1.6 0.00 0.00 0.00 55 1014.1
20260905234259 35 193 0.0 1.6 0.00 0.00 0.00 55 1014.1
20260905233754 35 62 0.0 1.6 0.00 0.00 0.00 55 1014.1
20260905233254 35 266 1.6 3.2 0.00 0.00 0.00 53 1014.1
20260905232753 35 118 1.6 1.6 0.00 0.00 0.00 56 1014.2
20260905232249 35 249 0.0 3.2 0.00 0.00 0.00 54 1014.3
20260905231745 35 326 0.0 3.2 0.00 0.00 0.00 56 1014.4
20260905231240 35 199 0.0 4.8 0.00 0.00 0.00 56 1014.3
20260905230736 35 62 0.0 1.6 0.00 0.00 0.00 53 1014.3
20260905230233 35 233 0.0 3.2 0.00 0.00 0.00 53 1014.1
20260905225733 35 203 3.2 4.8 0.00 0.00 0.00 56 1014.3
20260905225229 36 166 0.0 4.8 0.00 0.00 0.00 54 1014.1
20260905224727 36 268 1.6 3.2 0.00 0.00 0.00 48 1014.3
20260905224223 37 237 1.6 4.8 0.00 0.00 0.00 48 1014.0
20260905223719 38 220 1.6 3.2 0.00 0.00 0.00 50 1014.0
20260905223216 38 254 3.2 3.2 0.00 0.00 0.00 47 1014.0
20260905222712 39 194 0.0 3.2 0.00 0.00 0.00 45 1014.2
20260905222210 39 224 0.0 3.2 0.00 0.00 0.00 47 1014.1
20260905221706 38 260 1.6 3.2 0.00 0.00 0.00 47 1014.0
20260905221203 37 246 1.6 4.8 0.00 0.00 0.00 48 1014.2
20260905220659 38 261 1.6 3.2 0.00 0.00 0.00 46 1014.1
20260905220154 40 260 0.0 3.2 0.00 0.00 0.00 45 1014.0
20260905215649 40 242 0.0 3.2 0.00 0.00 0.00 42 1014.3
20260905215144 39 228 1.6 3.2 0.00 0.00 0.00 43 1014.2
20260905214640 40 273 1.6 3.2 0.00 0.00 0.00 44 1014.1
20260905214135 39 195 3.2 4.8 0.00 0.00 0.00 43 1014.4
20260905213630 40 248 3.2 4.8 0.00 0.00 0.00 42 1014.2
20260905213125 39 265 3.2 6.4 0.00 0.00 0.00 43 1014.0
20260905212620 40 57 0.0 3.2 0.00 0.00 0.00 41 1014.2
20260905212114 40 264 3.2 4.8 0.00 0.00 0.00 41 1014.1
20260905211609 40 251 3.2 4.8 0.00 0.00 0.00 39 1014.4
20260905211105 40 220 1.6 4.8 0.00 0.00 0.00 39 1014.3
20260905210602 40 278 3.2 4.8 0.00 0.00 0.00 40 1014.3
20260905210055 38 134 1.6 4.8 0.00 0.00 0.00 44 1014.4
20260905205554 38 238 3.2 4.8 0.00 0.00 0.00 42 1014.6
20260905205049 38 268 3.2 6.4 0.00 0.00 0.00 43 1014.7
20260905204544 37 163 3.2 9.7 0.00 0.00 0.00 41 1014.6
20260905204039 37 247 3.2 11.3 0.00 0.00 0.00 45 1014.6
20260905203538 40 228 0.0 4.8 0.00 0.00 0.00 44 1014.5
20260905203034 40 211 0.0 4.8 0.00 0.00 0.00 42 1014.4
20260905202529 39 292 3.2 3.2 0.00 0.00 0.00 44 1014.6
20260905202025 38 235 1.6 4.8 0.00 0.00 0.00 44 1014.6
20260905201520 39 264 3.2 4.8 0.00 0.00 0.00 43 1014.6
20260905201019 40 283 0.0 3.2 0.00 0.00 0.00 42 1014.7
20260905200515 41 51 3.2 6.4 0.00 0.00 0.00 40 1014.7
20260905200015 41 171 1.6 8.0 0.00 0.00 0.00 38 1014.7
20260905195515 42 223 3.2 4.8 0.00 0.00 0.00 38 1014.8
20260905195010 41 249 3.2 4.8 0.00 0.00 0.00 38 1014.9
20260905194509 41 277 4.8 6.4 0.00 0.00 0.00 38 1015.0
20260905194003 41 290 3.2 6.4 0.00 0.00 0.00 38 1014.9
20260905193458 41 230 1.6 4.8 0.00 0.00 0.00 40 1015.1
20260905192953 42 136 1.6 9.7 0.00 0.00 0.00 38 1015.2
20260905192449 42 260 3.2 8.0 0.00 0.00 0.00 38 1015.4
20260905191945 42 250 4.8 6.4 0.00 0.00 0.00 37 1015.2
20260905191443 42 249 3.2 8.0 0.00 0.00 0.00 38 1015.4
20260905190942 41 60 1.6 9.7 0.00 0.00 0.00 39 1015.4
20260905190436 41 146 4.8 6.4 0.00 0.00 0.00 38 1015.6
20260905185934 41 255 1.6 8.0 0.00 0.00 0.00 39 1015.4
20260905185429 40 223 3.2 9.7 0.00 0.00 0.00 40 1015.5
20260905184928 41 178 3.2 9.7 0.00 0.00 0.00 37 1015.4
20260905184423 42 193 6.4 9.7 0.00 0.00 0.00 37 1015.6
20260905183921 41 242 0.0 4.8 0.00 0.00 0.00 39 1015.7
20260905183416 41 310 3.2 6.4 0.00 0.00 0.00 39 1015.7
20260905182912 40 252 3.2 14.5 0.00 0.00 0.00 44 1015.7
20260905182410 40 0 1.6 8.0 0.00 0.00 0.00 42 1015.9
20260905181907 40 241 3.2 9.7 0.00 0.00 0.00 39 1015.7
20260905181407 40 266 4.8 8.0 0.00 0.00 0.00 43 1016.0
20260905180905 40 195 4.8 9.7 0.00 0.00 0.00 42 1016.0
20260905180401 40 234 3.2 8.0 0.00 0.00 0.00 43 1016.1
20260905175855 39 14 1.6 6.4 0.00 0.00 0.00 45 1016.0
20260905175355 40 261 1.6 8.0 0.00 0.00 0.00 45 1016.0
20260905174850 40 320 4.8 6.4 0.00 0.00 0.00 45 1016.0
20260905174346 39 253 4.8 11.3 0.00 0.00 0.00 45 1016.1
20260905173842 39 203 6.4 12.9 0.00 0.00 0.00 44 1016.0
20260905173337 38 241 1.6 8.0 0.00 0.00 0.00 49 1016.2
20260905172832 39 162 0.0 8.0 0.00 0.00 0.00 44 1016.4
20260905172330 38 179 0.0 6.4 0.00 0.00 0.00 50 1016.4
20260905171827 39 167 0.0 6.4 0.00 0.00 0.00 44 1016.4
20260905171323 39 132 1.6 6.4 0.00 0.00 0.00 46 1016.6
20260905170819 38 239 3.2 8.0 0.00 0.00 0.00 45 1016.4
20260905170315 38 126 3.2 11.3 0.00 0.00 0.00 45 1016.5
20260905165814 38 269 0.0 4.8 0.00 0.00 0.00 46 1016.7
20260905165310 38 219 1.6 4.8 0.00 0.00 0.00 47 1016.8
20260905164809 37 206 0.0 6.4 0.00 0.00 0.00 51 1017.0
20260905164304 37 279 3.2 8.0 0.00 0.00 0.00 48 1016.7
20260905163759 36 244 4.8 6.4 0.00 0.00 0.00 50 1016.8
20260905163256 36 255 1.6 6.4 0.00 0.00 0.00 50 1016.9
20260905162752 37 211 1.6 8.0 0.00 0.00 0.00 50 1017.0
20260905162251 36 172 3.2 6.4 0.00 0.00 0.00 51 1016.9
20260905161746 37 140 0.0 4.8 0.00 0.00 0.00 52 1017.1
20260905161244 37 80 0.0 4.8 0.00 0.00 0.00 49 1017.0
20260905160737 36 164 0.0 4.8 0.00 0.00 0.00 52 1016.9
20260905160232 36 183 0.0 3.2 0.00 0.00 0.00 56 1017.2
20260905155726 36 230 0.0 6.4 0.00 0.00 0.00 54 1017.0
20260905155225 35 166 3.2 3.2 0.00 0.00 0.00 56 1017.0
20260905154719 35 266 3.2 4.8 0.00 0.00 0.00 58 1017.0
20260905154215 35 258 3.2 6.4 0.00 0.00 0.00 58 1017.0
20260905153711 35 268 1.6 8.0 0.00 0.00 0.00 58 1017.1
20260905153207 35 65 1.6 4.8 0.00 0.00 0.00 56 1017.1
20260905152701 35 261 3.2 3.2 0.00 0.00 0.00 58 1017.1
20260905152156 34 307 3.2 4.8 0.00 0.00 0.00 59 1017.1
20260905151656 33 201 3.2 11.3 0.00 0.00 0.00 59 1017.2
20260905151151 33 275 4.8 6.4 0.00 0.00 0.00 60 1017.0
20260905150652 33 181 1.6 8.0 0.00 0.00 0.00 60 1017.0
20260905150150 32 297 0.0 4.8 0.00 0.00 0.00 64 1017.0
20260905145648 32 168 1.6 8.0 0.00 0.00 0.00 66 1017.3
20260905145143 31 269 0.0 4.8 0.00 0.00 0.00 71 1017.0
20260905144638 31 196 1.6 3.2 0.00 0.00 0.00 71 1017.1
20260905144137 32 238 3.2 3.2 0.00 0.00 0.00 68 1017.2
20260905143631 31 224 0.0 6.4 0.00 0.00 0.00 68 1017.0
20260905143126 31 199 0.0 4.8 0.00 0.00 0.00 68 1017.0
20260905142625 31 265 1.6 6.4 0.00 0.00 0.00 72 1017.0
20260905142124 30 223 3.2 3.2 0.00 0.00 0.00 70 1017.1
20260905141619 30 229 0.0 4.8 0.00 0.00 0.00 73 1017.1
20260905141115 29 167 4.8 6.4 0.00 0.00 0.00 75 1016.9
20260905140610 28 290 0.0 6.4 0.00 0.00 0.00 77 1017.2
20260905140109 28 184 1.6 3.2 0.00 0.00 0.00 79 1017.2
20260905135605 28 129 0.0 3.2 0.00 0.00 0.00 79 1017.1
20260905135100 27 162 0.0 3.2 0.00 0.00 0.00 79 1017.0
20260905134554 27 187 1.6 3.2 0.00 0.00 0.00 80 1017.0
20260905134053 27 230 0.0 4.8 0.00 0.00 0.00 82 1016.9
20260905133548 27 46 0.0 1.6 0.00 0.00 0.00 81 1016.8
20260905133042 26 207 1.6 4.8 0.00 0.00 0.00 84 1016.8
20260905132537 26 258 1.6 3.2 0.00 0.00 0.00 86 1016.7
20260905132031 26 183 0.0 4.8 0.00 0.00 0.00 88 1016.9
20260905131527 25 287 0.0 4.8 0.00 0.00 0.00 90 1016.9
20260905131022 25 149 1.6 3.2 0.00 0.00 0.00 93 1016.8
20260905130521 24 269 0.0 1.6 0.00 0.00 0.00 94 1016.7
20260905130017 24 260 0.0 1.6 0.00 0.00 0.00 95 1016.8
20260905125516 24 104 0.0 1.6 0.00 0.00 0.00 96 1016.8
20260905125012 23 37 0.0 0.0 0.00 0.00 0.00 96 1016.7
20260905124508 23 164 0.0 0.0 0.00 0.00 0.00 97 1016.7
20260905124004 23 104 0.0 1.6 0.00 0.00 0.00 97 1016.4
20260905123459 23 143 1.6 3.2 0.00 0.00 0.00 97 1016.5
20260905122954 23 129 0.0 1.6 0.00 0.00 0.00 97 1016.3
20260905122449 23 126 0.0 1.6 0.00 0.00 0.00 97 1016.7
20260905121944 23 142 0.0 1.6 0.00 0.00 0.00 97 1016.2
20260905121440 23 130 0.0 0.0 0.00 0.00 0.00 97 1016.6
20260905120938 22 130 0.0 0.0 0.00 0.00 0.00 97 1016.6
20260905120428 23 142 0.0 0.0 0.00 0.00 0.00 97 1016.5
20260905115923 23 154 0.0 0.0 0.00 0.00 0.00 97 1016.4
20260905115421 22 147 0.0 0.0 0.00 0.00 0.00 97 1016.3
20260905114911 23 147 0.0 1.6 0.00 0.00 0.00 97 1016.1
20260905114410 23 142 0.0 1.6 0.00 0.00 0.00 97 1016.2
20260905113904 22 89 0.0 1.6 0.00 0.00 0.00 97 1016.2
20260905113359 23 126 0.0 1.6 0.00 0.00 0.00 97 1016.2
20260905112854 23 80 0.0 1.6 0.00 0.00 0.00 97 1015.9
20260905112350 23 154 0.0 1.6 0.00 0.00 0.00 97 1015.9
20260905111844 23 117 0.0 3.2 0.00 0.00 0.00 97 1016.0
20260905111338 23 122 0.0 1.6 0.00 0.00 0.00 97 1016.0
20260905110838 23 183 0.0 3.2 0.00 0.00 0.00 97 1015.9
20260905110332 23 142 0.0 1.6 0.00 0.00 0.00 97 1015.9
20260905105827 23 142 0.0 3.2 0.00 0.00 0.00 97 1015.9
20260905105327 23 119 0.0 1.6 0.00 0.00 0.00 97 1016.0
20260905104821 23 150 0.0 1.6 0.00 0.00 0.00 97 1015.7
20260905104318 23 129 0.0 3.2 0.00 0.00 0.00 97 1015.9
20260905103817 23 147 0.0 1.6 0.00 0.00 0.00 97 1015.9
20260905103313 23 135 0.0 3.2 0.00 0.00 0.00 97 1015.9
20260905102809 23 117 0.0 0.0 0.00 0.00 0.00 96 1016.0
20260905102306 23 129 0.0 0.0 0.00 0.00 0.00 96 1015.9
20260905101805 23 135 0.0 1.6 0.00 0.00 0.00 96 1015.9
20260905101304 23 62 0.0 1.6 0.00 0.00 0.00 96 1016.0
20260905100757 23 124 0.0 1.6 0.00 0.00 0.00 96 1016.1
20260905100253 23 135 0.0 3.2 0.00 0.00 0.00 96 1016.0
20260905095752 23 127 0.0 1.6 0.00 0.00 0.00 96 1016.0
20260905095247 23 113 0.0 1.6 0.00 0.00 0.00 96 1016.0
20260905094742 23 129 0.0 1.6 0.00 0.00 0.00 96 1015.9
20260905094237 23 173 0.0 0.0 0.00 0.00 0.00 96 1016.0
20260905093737 23 154 0.0 1.6 0.00 0.00 0.00 96 1015.9
20260905093233 23 117 0.0 1.6 0.00 0.00 0.00 96 1016.1
20260905092727 23 112 0.0 1.6 0.00 0.00 0.00 96 1016.0
20260905092222 23 136 0.0 1.6 0.00 0.00 0.00 96 1015.9
20260905091717 23 62 0.0 0.0 0.00 0.00 0.00 96 1015.9
20260905091212 23 117 0.0 1.6 0.00 0.00 0.00 96 1015.9
20260905090711 23 129 0.0 3.2 0.00 0.00 0.00 96 1015.8
20260905090207 23 115 0.0 1.6 0.00 0.00 0.00 95 1016.0
20260905085705 23 129 0.0 0.0 0.00 0.00 0.00 95 1015.9
20260905085200 23 138 0.0 1.6 0.00 0.00 0.00 95 1015.9
20260905084654 23 117 0.0 1.6 0.00 0.00 0.00 95 1015.8
20260905084149 24 117 0.0 1.6 0.00 0.00 0.00 95 1016.0
20260905083649 24 120 1.6 1.6 0.00 0.00 0.00 95 1016.0
20260905083146 24 117 0.0 1.6 0.00 0.00 0.00 94 1016.0
20260905082642 24 89 0.0 1.6 0.00 0.00 0.00 94 1016.2
20260905082137 24 101 0.0 1.6 0.00 0.00 0.00 94 1016.2
20260905081631 24 104 0.0 1.6 0.00 0.00 0.00 94 1016.3
20260905081126 24 135 0.0 1.6 0.00 0.00 0.00 94 1016.4
20260905080621 24 129 0.0 1.6 0.00 0.00 0.00 94 1016.3
20260905080120 24 142 0.0 0.0 0.00 0.00 0.00 94 1016.4
20260905075620 24 117 0.0 1.6 0.00 0.00 0.00 94 1016.4
20260905075114 24 117 0.0 1.6 0.00 0.00 0.00 94 1016.3
20260905074613 24 122 1.6 1.6 0.00 0.00 0.00 94 1016.2
20260905074109 24 142 0.0 1.6 0.00 0.00 0.00 93 1016.2
20260905073605 24 117 0.0 1.6 0.00 0.00 0.00 92 1016.3
20260905073100 24 154 0.0 1.6 0.00 0.00 0.00 93 1016.2
20260905072559 24 124 0.0 1.6 0.00 0.00 0.00 93 1016.3
20260905072055 25 126 0.0 1.6 0.00 0.00 0.00 93 1016.4
20260905071551 25 89 0.0 1.6 0.00 0.00 0.00 92 1016.3
20260905071046 25 129 0.0 1.6 0.00 0.00 0.00 92 1016.5
20260905070541 25 129 0.0 1.6 0.00 0.00 0.00 92 1016.5
20260905070038 25 147 0.0 1.6 0.00 0.00 0.00 92 1016.5
20260905065535 24 113 0.0 1.6 0.00 0.00 0.00 92 1016.4
20260905065030 25 129 0.0 1.6 0.00 0.00 0.00 92 1016.5
20260905064530 25 124 0.0 0.0 0.00 0.00 0.00 92 1016.5
20260905064026 25 117 0.0 1.6 0.00 0.00 0.00 92 1016.5
20260905063524 25 115 0.0 1.6 0.00 0.00 0.00 92 1016.4
20260905063021 25 125 0.0 1.6 0.00 0.00 0.00 92 1016.4
20260905062521 25 124 0.0 3.2 0.00 0.00 0.00 92 1016.4
20260905062021 25 149 1.6 3.2 0.00 0.00 0.00 92 1016.4
20260905061516 25 104 0.0 1.6 0.00 0.00 0.00 91 1016.7
20260905061015 25 129 0.0 1.6 0.00 0.00 0.00 91 1016.5
20260905060511 25 129 0.0 1.6 0.00 0.00 0.00 91 1016.6
20260905060007 25 147 0.0 1.6 0.00 0.00 0.00 91 1016.4
20260905055505 25 117 0.0 0.0 0.00 0.00 0.00 91 1016.6
20260905055000 25 124 0.0 1.6 0.00 0.00 0.00 91 1016.5
20260905054456 25 135 0.0 0.0 0.00 0.00 0.00 90 1016.6
20260905053951 25 129 0.0 1.6 0.00 0.00 0.00 90 1016.6
20260905053446 25 135 0.0 1.6 0.00 0.00 0.00 90 1016.7
20260905052942 25 154 0.0 1.6 0.00 0.00 0.00 91 1016.5